Probability
0 0 0 0 0 0 0 0 1 2 2 2 3 4 8 12 15 17 15 14 14 16 17 16 15 15 17 17 19 21 21 19 17 17 18 18 16 15 15 15 15 14 12 10
0 0 0 0 0 0 1 1 0 1 1 2 3 5 9 13 17 17 14 12 13 14 15 15 14 13 15 16 17 19 18 17 17 18 19 19 16 15 16 17 17 16 15 14
0 0 0 0 0 1 2 2 2 2 2 3 4 7 9 11 15 15 12 10 13 14 14 14 13 13 13 12 13 14 14 13 14 18 21 20 18 16 16 17 17 17 17 17
0 0 0 0 0 1 3 4 6 6 6 5 6 7 8 8 11 12 11 11 13 16 16 16 16 15 14 11 11 11 10 11 13 17 20 20 18 15 15 17 17 16 16 17
0 0 0 0 0 1 3 5 7 10 10 9 7 7 7 8 10 12 11 12 15 17 18 18 18 17 16 13 12 11 11 13 15 18 19 18 16 14 15 17 17 16 15 15
0 0 0 0 0 1 3 5 7 9 11 12 10 9 8 9 10 12 12 12 15 18 19 19 19 19 18 16 14 14 15 18 20 21 19 16 14 12 13 15 17 16 15 13
0 0 0 0 0 0 1 3 6 8 11 13 13 12 12 11 11 12 13 13 16 18 18 19 20 20 19 17 16 17 19 20 22 21 19 17 13 11 11 12 15 15 13 11
0 0 0 1 2 1 1 3 5 8 9 11 14 15 15 15 13 14 14 13 16 19 20 20 20 21 20 19 18 18 18 18 18 18 17 15 13 10 9 8 10 11 10 8
0 0 0 2 3 3 3 5 6 7 8 11 14 17 17 15 14 15 15 15 18 20 21 20 19 20 20 19 18 17 15 13 13 13 13 12 10 8 6 5 5 6 5 4
0 0 0 2 3 4 4 6 7 7 8 10 13 16 17 15 14 16 18 18 20 20 19 18 17 18 19 19 19 18 14 11 10 10 10 9 8 6 5 4 3 2 2 3
0 0 0 1 1 2 2 5 7 8 8 10 13 15 15 14 14 16 18 18 19 19 16 15 15 17 18 19 20 19 15 11 9 9 9 9 7 5 4 3 1 0 1 2
0 0 0 0 0 0 0 2 5 7 9 11 13 14 14 13 11 13 15 16 17 16 14 13 16 18 17 18 19 18 15 12 9 8 9 8 7 4 2 1 0 0 1 2
0 0 0 0 0 0 0 1 3 7 9 11 12 12 11 9 8 9 10 12 13 14 13 14 16 16 14 15 16 16 14 11 9 8 7 7 6 3 1 0 0 0 0 1
0 0 0 0 0 0 0 0 2 7 8 7 7 8 8 7 7 7 8 9 10 12 13 14 14 14 12 14 15 15 12 10 10 8 7 6 5 3 1 0 0 0 0 0
0 0 0 0 1 1 0 0 2 5 6 4 4 5 6 7 7 7 7 8 10 13 14 13 12 12 12 13 14 13 12 11 10 9 8 7 5 3 1 0 0 0 0 0
0 0 0 1 2 2 1 1 3 4 4 3 2 3 5 6 6 6 7 9 11 14 15 13 11 11 12 13 12 11 11 11 11 10 8 6 4 3 1 1 1 1 1 0
0 0 0 1 2 2 1 1 3 3 3 2 1 2 4 5 5 6 7 9 10 12 12 10 8 10 12 12 10 10 10 10 10 10 7 5 3 2 1 1 2 2 2 1
1 1 1 2 3 3 3 2 2 2 1 1 0 1 4 4 4 5 7 7 8 9 9 6 6 9 11 10 10 10 9 9 9 8 6 3 2 1 1 0 1 2 2 1
2 2 3 4 4 3 4 3 2 1 0 0 0 2 4 4 3 4 5 5 5 7 6 4 6 9 9 8 9 10 9 8 7 6 4 3 1 0 0 0 0 1 1 0
4 4 4 5 4 4 4 4 3 1 1 1 1 3 5 4 3 3 4 3 4 6 5 4 5 7 7 7 7 8 8 6 5 4 4 3 2 1 0 0 0 0 0 0
3 4 5 4 4 3 4 4 3 3 2 2 3 5 5 4 3 3 3 3 4 6 6 5 5 6 6 5 5 6 6 6 5 5 5 5 4 2 1 1 0 0 0 0
2 3 3 3 2 2 3 3 3 3 3 3 4 5 4 3 3 3 3 4 5 6 6 5 5 5 5 4 4 5 6 6 5 5 6 5 4 3 3 2 1 1 0 0
0 1 1 1 1 1 2 2 2 3 3 3 3 4 3 3 3 3 3 3 3 3 4 4 3 3 3 3 4 5 6 6 5 5 4 4 3 2 2 2 2 2 1 0
1 1 1 2 2 2 1 1 1 1 2 2 2 2 2 2 2 2 1 1 1 1 3 3 2 2 3 4 4 4 4 5 6 5 4 2 2 1 1 1 2 2 1 0
2 2 3 3 2 1 0 0 0 0 1 1 1 1 1 1 1 1 0 0 0 1 2 2 1 1 3 4 4 3 3 3 4 4 3 2 2 1 0 0 1 1 0 0
3 3 3 2 1 0 0 0 0 0 0 0 0 0 0 0 0 0 0 0 0 1 2 2 1 1 2 3 3 2 1 1 1 1 1 2 2 1 0 0 0 0 0 0
3 3 2 1 0 0 0 0 0 0 0 0 0 0 0 0 0 0 0 0 0 1 2 1 0 1 2 3 2 1 0 0 0 0 0 1 1 0 0 0 0 0 0 0
Wind_Speed
3 3 2 1 2 1 2 5 6 6 7 9 9 9 8 6 5 5 5 6 8 8 7 7 7 6 6 5 5 5 5 4 4 3 3 3 3 3 3 2 2 2 1 1
2 2 1 2 3 2 1 2 3 3 3 4 4 5 5 6 7 6 5 6 7 8 8 8 8 7 6 6 5 5 5 4 4 3 3 3 3 3 3 2 2 2 2 2
2 3 3 4 3 2 1 1 5 5 5 2 2 5 8 9 9 8 7 6 7 8 8 7 7 8 8 7 5 5 5 4 3 3 3 4 4 2 3 3 2 2 2 3
1 2 2 7 4 1 2 1 2 3 2 4 6 5 4 5 7 6 7 7 7 7 6 6 5 6 6 6 6 5 5 4 4 3 3 3 3 3 3 2 2 3 3 3
3 3 4 5 4 1 3 1 1 3 4 3 3 5 3 1 3 5 7 7 7 8 8 7 6 6 6 5 5 5 4 4 4 4 3 3 3 4 3 2 2 2 3 3
4 3 5 6 4 2 5 1 2 3 5 5 4 3 3 3 2 2 3 4 6 7 6 7 7 7 7 6 5 5 5 4 4 4 4 4 3 3 2 2 3 3 3 3
4 4 6 6 4 1 4 7 3 3 5 5 3 4 5 3 3 3 4 5 5 6 6 6 7 8 7 6 5 5 4 3 3 3 3 4 3 2 2 2 2 2 2 2
4 4 7 4 2 4 6 3 3 3 4 4 2 2 1 1 2 3 4 4 5 5 4 5 6 7 6 5 4 3 3 3 2 2 2 2 2 1 2 2 2 2 2 1
7 7 6 2 3 3 4 4 3 3 3 4 3 2 2 2 2 3 3 3 4 5 5 3 4 6 6 5 4 5 4 3 2 1 1 1 2 2 1 1 2 2 2 1
0 3 2 1 2 2 4 4 3 3 4 5 4 3 2 2 2 2 3 3 3 5 5 3 3 4 5 5 5 5 4 3 3 2 1 1 1 1 2 2 2 2 2 2
1 3 2 1 1 2 2 3 4 3 4 5 5 3 2 2 2 2 3 3 2 3 4 4 3 3 4 4 5 5 4 3 2 2 2 2 1 1 2 2 3 3 3 3
6 7 5 5 4 3 4 4 4 5 4 4 5 3 2 2 2 3 3 2 2 2 3 3 3 3 3 3 5 5 4 3 2 2 2 2 2 1 3 1 2 2 3 4
6 5 4 4 3 3 4 4 5 6 6 4 3 3 3 2 2 2 2 2 2 3 3 4 4 3 2 3 4 5 4 3 3 2 2 2 2 2 0 3 3 2 2 3
3 1 1 2 3 3 4 4 4 5 4 4 3 3 2 2 2 2 1 2 3 3 4 4 4 3 2 3 4 3 3 3 3 2 2 2 2 2 2 1 1 2 3 3
4 3 5 4 4 4 4 5 5 4 3 3 3 3 3 2 1 1 2 2 2 2 3 3 3 2 2 3 4 3 3 2 2 2 2 2 2 1 1 1 1 1 2 2
4 3 4 5 5 5 5 5 4 4 4 3 2 3 3 2 2 2 2 3 3 2 3 3 4 4 3 3 3 3 2 2 2 2 2 2 1 1 1 1 1 1 2 2
3 4 4 5 5 5 5 6 6 5 4 4 4 3 3 3 2 2 2 2 3 3 3 3 4 3 4 4 4 3 2 2 2 2 2 2 2 2 2 2 2 2 2 3
5 6 6 7 7 6 5 4 4 5 5 5 4 4 4 3 3 3 2 2 2 2 1 3 3 3 4 4 3 2 2 2 2 2 2 2 2 1 1 1 2 2 2 2
2 4 4 5 5 6 6 5 4 4 3 4 5 4 4 4 4 4 3 3 3 3 2 2 4 4 4 3 2 2 2 2 2 2 2 2 2 1 1 1 1 1 1 1
1 2 3 3 3 4 4 4 4 3 3 3 4 3 3 4 4 4 3 3 3 4 4 3 4 3 3 3 2 2 2 3 3 2 2 2 2 2 2 2 1 1 1 1
3 3 3 3 2 2 3 3 4 4 3 4 4 4 5 4 4 4 4 2 2 2 3 4 3 3 2 2 2 2 2 3 3 2 2 2 2 1 1 1 1 1 1 1
2 2 2 2 2 1 2 2 3 3 3 3 4 4 4 3 3 3 2 2 2 3 3 2 2 3 2 2 2 2 2 2 2 2 2 2 2 1 1 1 1 1 1 2
2 3 2 2 2 1 0 1 2 3 3 4 4 4 4 4 3 4 2 1 2 3 3 2 3 4 3 2 2 1 2 2 2 2 2 2 2 2 2 2 1 1 1 1
1 1 2 1 1 1 1 1 2 2 3 3 3 3 4 4 2 2 2 3 3 3 2 3 4 4 4 2 2 1 1 2 2 1 1 1 1 1 1 1 1 1 1 1
1 1 1 2 1 2 2 2 3 3 3 3 3 3 2 3 4 2 2 2 3 3 2 2 3 3 3 2 2 2 1 1 2 2 1 1 1 1 1 1 1 1 1 1
1 1 1 2 2 1 1 3 3 3 3 3 2 1 1 2 3 3 2 2 2 3 2 1 1 2 1 2 2 2 2 2 1 1 2 2 2 1 1 1 1 1 1 1
1 1 1 1 1 1 2 2 3 3 3 3 3 2 2 2 2 3 3 2 2 2 2 1 1 1 1 1 1 2 2 2 2 2 2 1 1 1 1 1 1 1 1 1
Wind_Direction
208 225 185 207 286 267 186 191 191 211 193 208 204 192 182 168 150 146 145 150 157 162 163 161 161 164 165 167 168 165 164 171 188 190 178 168 176 192 199 206 209 201 197 217
355 340 20 338 310 290 240 172 167 159 224 213 193 170 162 160 154 161 170 169 169 164 161 165 166 163 159 164 170 162 167 181 185 178 174 175 183 190 194 197 204 193 186 196
297 318 27 315 259 230 257 184 161 189 223 186 141 168 177 173 166 171 182 174 172 170 168 170 171 164 167 171 168 161 168 176 177 179 184 187 186 187 206 200 188 196 201 176
138 58 220 248 266 190 99 52 133 146 156 153 160 170 160 156 162 175 185 176 172 170 168 165 162 159 162 158 157 163 169 175 176 177 187 191 184 196 210 189 186 198 197 189
129 174 255 283 285 194 135 327 38 124 124 119 121 84 67 137 161 181 190 180 172 166 163 157 152 149 143 149 157 165 177 184 185 182 185 191 198 206 201 184 196 195 192 192
142 167 217 241 255 192 116 241 270 135 132 129 103 109 223 228 212 174 162 161 161 157 152 152 156 147 146 161 165 180 190 192 190 184 185 195 201 203 198 184 194 192 195 198
171 202 244 253 274 112 171 219 216 151 142 139 149 190 210 209 182 153 150 158 152 146 152 163 157 148 150 158 179 189 181 176 178 179 186 185 182 187 175 178 182 187 188 213
165 194 243 266 89 169 206 185 143 125 126 121 115 109 132 124 140 132 116 129 133 131 141 150 150 146 149 167 178 157 150 152 161 173 190 173 161 176 167 164 170 175 170 204
189 211 232 229 159 177 145 131 144 136 127 114 99 94 81 65 58 104 109 122 129 126 125 132 151 153 158 175 160 146 142 147 153 154 156 156 165 171 167 166 169 180 175 196
226 265 245 156 115 126 140 142 159 142 126 111 110 114 100 84 85 96 93 98 112 120 125 135 151 151 158 160 152 143 148 153 155 149 141 127 150 167 176 192 184 191 195 203
239 266 319 317 163 144 113 103 95 93 108 119 118 119 116 98 101 101 88 93 100 136 145 154 152 145 154 154 142 141 145 150 162 170 160 151 147 208 210 224 219 200 202 196
231 232 195 223 224 153 128 127 117 104 86 96 118 117 106 102 121 112 94 97 100 127 134 141 144 148 159 165 151 147 150 160 181 183 166 154 145 18 2 320 289 237 211 201
232 245 217 204 189 148 135 135 126 116 115 115 112 115 115 123 124 103 102 115 128 151 149 148 148 158 175 167 154 154 161 169 176 176 171 169 171 168 280 347 358 336 261 232
247 185 185 196 187 159 148 145 123 115 117 127 132 118 115 108 108 118 153 180 150 155 156 154 151 169 181 152 145 151 160 172 172 177 180 178 184 188 189 195 294 319 307 276
252 211 200 185 165 153 145 132 121 121 125 130 128 129 134 116 128 194 181 143 116 122 151 152 155 183 182 152 147 153 160 173 174 175 174 173 172 171 189 204 226 274 315 324
243 214 181 159 159 159 148 145 149 165 169 160 152 161 159 155 154 155 155 137 138 168 177 168 179 189 170 153 147 150 163 169 157 159 155 155 160 181 194 213 222 235 246 257
207 209 181 163 168 174 177 179 179 181 177 174 176 170 156 137 129 132 151 158 172 183 182 176 181 179 162 158 156 161 164 168 145 139 156 166 177 189 181 199 221 230 245 243
209 198 184 172 170 171 171 165 168 170 175 183 170 154 150 155 169 184 177 159 152 137 176 187 178 165 154 154 159 161 161 168 161 159 163 169 175 180 175 186 208 225 262 266
187 163 161 159 161 163 162 163 167 167 165 162 157 168 180 186 186 183 163 149 152 165 210 201 169 150 147 158 151 150 156 160 153 154 151 152 154 162 164 170 192 221 237 243
151 157 144 144 150 154 161 165 159 160 168 166 161 170 193 201 185 173 161 168 191 195 194 171 149 148 153 158 138 146 160 166 163 164 155 155 169 192 192 185 190 207 223 218
108 112 106 115 123 140 156 155 160 175 182 173 180 190 192 189 174 159 149 170 234 182 166 151 141 144 156 169 157 151 159 166 167 167 162 162 169 185 196 195 195 210 223 224
107 116 124 125 123 153 178 163 165 181 184 184 176 161 146 144 147 141 148 184 195 166 156 154 156 150 145 146 158 149 150 158 162 160 157 161 163 173 197 207 211 234 239 242
124 139 146 151 158 172 167 176 172 169 165 159 151 148 145 147 146 139 160 210 168 159 149 159 160 153 148 130 127 137 137 140 151 164 170 174 175 176 187 201 209 217 227 240
158 174 169 166 139 113 191 216 174 153 147 144 143 142 136 127 120 141 161 165 161 153 140 156 161 157 144 127 121 119 137 147 147 152 158 161 158 162 182 190 190 247 248 233
203 200 181 158 164 192 197 171 132 120 122 120 117 125 136 138 142 154 151 145 138 129 128 147 160 164 150 138 135 138 167 182 167 153 149 149 158 161 165 168 157 196 254 265
212 198 183 174 169 169 146 130 122 124 125 122 119 135 132 125 133 137 128 126 128 135 138 139 133 135 129 130 136 154 173 174 162 151 149 150 164 168 159 159 173 199 235 260
69 66 81 70 66 104 115 125 130 138 145 142 144 152 136 124 122 123 118 116 120 129 134 137 130 126 130 134 153 167 166 168 166 155 152 157 161 157 159 167 182 199 234 269